TimeCDT,TemperatureF,Dew PointF,Humidity,Sea Level PressureIn,VisibilityMPH,Wind Direction,Wind SpeedMPH,Gust SpeedMPH,PrecipitationIn,Events,Conditions,WindDirDegrees,DateUTC
12:52 AM,37.9,35.1,89,29.87,10.0,Calm,Calm,-,N/A,,Overcast,0,2013-10-20 05:52:00
1:52 AM,37.0,35.1,93,29.88,10.0,West,3.5,-,N/A,,Overcast,280,2013-10-20 06:52:00
2:52 AM,39.0,36.0,89,29.89,10.0,Calm,Calm,-,N/A,,Overcast,0,2013-10-20 07:52:00
3:52 AM,39.0,36.0,89,29.87,10.0,Calm,Calm,-,N/A,,Overcast,0,2013-10-20 08:52:00
4:52 AM,39.0,36.0,89,29.86,10.0,Calm,Calm,-,N/A,,Overcast,0,2013-10-20 09:52:00
5:52 AM,37.9,36.0,93,29.85,10.0,Calm,Calm,-,N/A,,Partly Cloudy,0,2013-10-20 10:52:00
6:52 AM,37.9,36.0,93,29.84,10.0,SE,5.8,-,N/A,,Mostly Cloudy,140,2013-10-20 11:52:00
7:52 AM,37.9,35.1,89,29.83,10.0,ESE,5.8,-,N/A,,Mostly Cloudy,120,2013-10-20 12:52:00
8:52 AM,41.0,36.0,82,29.83,10.0,SE,9.2,-,N/A,,Overcast,130,2013-10-20 13:52:00
9:52 AM,45.0,37.9,76,29.82,10.0,ESE,6.9,-,N/A,,Overcast,110,2013-10-20 14:52:00
10:52 AM,48.9,42.1,77,29.81,10.0,SSE,5.8,-,N/A,,Overcast,150,2013-10-20 15:52:00
11:52 AM,52.0,43.0,71,29.78,10.0,SSE,8.1,-,N/A,,Mostly Cloudy,150,2013-10-20 16:52:00
12:52 PM,55.0,43.0,64,29.76,10.0,South,8.1,-,N/A,,Mostly Cloudy,170,2013-10-20 17:52:00
1:52 PM,59.0,43.0,55,29.74,10.0,South,8.1,-,N/A,,Mostly Cloudy,180,2013-10-20 18:52:00
2:52 PM,62.1,42.1,48,29.74,10.0,SW,10.4,-,N/A,,Mostly Cloudy,220,2013-10-20 19:52:00
3:52 PM,60.1,43.0,53,29.76,10.0,WSW,6.9,-,0.00,Rain,Light Rain,240,2013-10-20 20:52:00
4:52 PM,57.0,48.0,72,29.74,10.0,Variable,3.5,-,0.00,,Mostly Cloudy,0,2013-10-20 21:52:00
5:52 PM,55.9,46.9,72,29.78,10.0,SW,6.9,-,0.01,Rain,Light Rain,230,2013-10-20 22:52:00
6:52 PM,54.0,48.0,80,29.79,10.0,Calm,Calm,-,0.00,,Scattered Clouds,0,2013-10-20 23:52:00
7:52 PM,48.0,46.0,93,29.80,10.0,Calm,Calm,-,N/A,,Partly Cloudy,0,2013-10-21 00:52:00
8:52 PM,52.0,45.0,77,29.82,10.0,West,8.1,-,N/A,,Overcast,270,2013-10-21 01:52:00
9:52 PM,52.0,45.0,77,29.85,10.0,NW,5.8,-,N/A,,Mostly Cloudy,310,2013-10-21 02:52:00
10:52 PM,53.1,39.9,61,29.86,10.0,WNW,11.5,-,N/A,,Mostly Cloudy,300,2013-10-21 03:52:00
11:52 PM,50.0,41.0,71,29.88,10.0,NW,18.4,24.2,N/A,,Overcast,320,2013-10-21 04:52:00